Starlink 30349

operational
NORAD ID: 57713 Int'l Des: 2023-129 Owner: SPXS Country: US Constellation: starlink
LEOCIRCULAR

Über Starlink 30349

Beschreibung wird geladen...

Live-Position

3D-Globus wird geladen...

Nächste Überflüge

Höhenverlauf

Altitude vs Time

uPlot chart will show altitude changes over time

Zweizeiliger Elementsatz

1 57713U 23129R 25351.64511066 .00000061 00000-0 19588-4 0 9997
2 57713 43.0020 206.0275 0000956 265.6404 94.4329 15.02535403128171
Epoch: 17. Dez. 2025 • Age: 16 hours

Aktueller Status

Höhe 569.4 km
Geschwindigkeit 7.58 km/s
Subsatellitenpunkt -37.10°S, 45.88°W
Startdatum 27. Aug. 2023
Alter 2.3 years
Typ internet

Technische Details

Klassifizierung Payload
Masse 730.00 kg
Trockenmasse 700.00 kg
Gesamtmasse 730.00 kg
Länge 0.30 m
Durchmesser 4.10 m
Spannweite 29.00 m
Form Box + pan
Hersteller SPXS
Bus-Typ Starlink V2M
Phasenstatus In Orbit
Besitzer/Staat SPXS/US

Große Konstellationen

Loading constellations...